This is the latest recevied weather packets stored in our database for station/object N4HAC. If no packets are shown the sender has not sent any weather packets the latest 10 day(s).
| Time | Temp. | Humidity | Pressure | Rain* | Wind** | Luminosity | Snow |
|---|---|---|---|---|---|---|---|
| 1777859497 | 6.67° C | 73% | 1009.8 hPa | 0 mm | - | 0 W/m² | - |
| 1777859192 | 6.67° C | 69% | 1009.6 hPa | 0 mm | - | 0 W/m² | - |
| 1777858890 | 7.22° C | 68% | 1009.8 hPa | 0 mm | - | 0 W/m² | - |
| 1777858587 | 7.22° C | 69% | 1009.6 hPa | 0 mm | - | 0 W/m² | - |
| 1777858284 | 7.78° C | 66% | 1009.7 hPa | 0 mm | - | 0 W/m² | - |
| 1777857981 | 8.33° C | 64% | 1009.6 hPa | 0 mm | - | 0 W/m² | - |
| 1777857679 | 8.33° C | 60% | 1009.5 hPa | 0 mm | - | 0 W/m² | - |
| 1777857376 | 8.89° C | 58% | 1009.5 hPa | 0 mm | - | 0 W/m² | - |
| 1777857072 | 9.44° C | 55% | 1009.5 hPa | 0 mm | - | 0 W/m² | - |
| 1777856768 | 9.44° C | 57% | 1009.2 hPa | 0 mm | - | 0 W/m² | - |
| 1777856464 | 9.44° C | 54% | 1009.4 hPa | 0 mm | - | 0 W/m² | - |
| 1777856161 | 9.44° C | 52% | 1009.1 hPa | 0 mm | - | 0 W/m² | - |
| 1777855858 | 10° C | 53% | 1009.1 hPa | 0 mm | - | 0 W/m² | - |
| 1777855556 | 10.56° C | 50% | 1008.9 hPa | 0 mm | - | 0 W/m² | - |
| 1777855253 | 10.56° C | 49% | 1009.2 hPa | 0 mm | - | 0 W/m² | - |
| 1777854949 | 11.67° C | 47% | 1009 hPa | 0 mm | - | 0 W/m² | - |
| 1777854646 | 11.67° C | 45% | 1008.9 hPa | 0 mm | - | 0 W/m² | - |
| 1777854342 | 12.22° C | 44% | 1008.9 hPa | 0 mm | - | 0 W/m² | - |
| 1777854040 | 12.22° C | 45% | 1008.9 hPa | 0 mm | - | 0 W/m² | - |
| 1777853738 | 12.78° C | 42% | 1009.2 hPa | 0 mm | - | 1 W/m² | - |
| 1777853434 | 13.33° C | 39% | 1008.8 hPa | 0 mm | - | 2 W/m² | - |
| 1777853131 | 13.89° C | 36% | 1009 hPa | 0 mm | - | 3 W/m² | - |
| 1777852828 | 14.44° C | 35% | 1009 hPa | 0 mm | - | 5 W/m² | - |
| 1777852527 | 14.44° C | 33% | 1009 hPa | 0 mm | - | 8 W/m² | - |
| 1777852223 | 15.56° C | 33% | 1009 hPa | 0 mm | - | 12 W/m² | - |
* Rain latest hour (hover to see other rain measurements)
** Current wind speed in m/s (hover to see current wind gust speed)